When you browse on this site, cookies collect data to enhance your experience and personalize the content and advertising you see.
Visit our Privacy Policy to learn more. By continuing to use the site, you agree to this use of cookies and data.
  • In Hungary
  • List of Countries
  • For 7 days
  • Water Temperature
  • Weather Map
  • News
  • Weather Widgets
  • user-avatar
    Login

    Hourly Weather Komasin

    Today, 21 August, Wednesday

    Time Temperature Precipitation Wind Pressure Humidity
    00:00 +18°C° 1.6 mm 4 mps 756 mmHg 75%
    01:00 +15°C° 0 mm 4 mps 757 mmHg 86%
    02:00 +15°C° 1.6 mm 4 mps 757 mmHg 87%
    03:00 +16°C° 1.6 mm 3 mps 757 mmHg 89%
    04:00 +16°C° 1.6 mm 3 mps 757 mmHg 90%
    05:00 +16°C° 0.6 mm 3 mps 758 mmHg 90%
    06:00 +16°C° 0.6 mm 2 mps 758 mmHg 90%
    07:00 +16°C° 0.6 mm 2 mps 759 mmHg 90%
    08:00 +16°C° 0.1 mm 2 mps 759 mmHg 88%
    09:00 +17°C° 0.1 mm 2 mps 759 mmHg 87%
    10:00 +18°C° 0.1 mm 1 mps 760 mmHg 86%
    11:00 +18°C° 0.2 mm 2 mps 760 mmHg 79%
    12:00 +19°C° 0.2 mm 2 mps 760 mmHg 72%
    13:00 +20°C° 0.2 mm 2 mps 760 mmHg 65%
    14:00 +21°C° 0.1 mm 3 mps 760 mmHg 61%
    15:00 +22°C° 0.1 mm 3 mps 760 mmHg 57%
    16:00 +22°C° 0.1 mm 3 mps 760 mmHg 53%
    17:00 +21°C° 0 mm 2 mps 760 mmHg 58%
    18:00 +20°C° 0 mm 2 mps 760 mmHg 63%
    19:00 +19°C° 0 mm 1 mps 760 mmHg 68%
    20:00 +19°C° 0 mm 1 mps 760 mmHg 70%
    21:00 +18°C° 0 mm 1 mps 761 mmHg 73%
    22:00 +16°C° 0 mm 1 mps 761 mmHg 75%
    23:00 +16°C° 0 mm 1 mps 761 mmHg 76%

    Tomorrow, 22 August, Thursday

    Time Temperature Precipitation Wind Pressure Humidity
    00:00 +15°C° 0 mm 1 mps 761 mmHg 77%
    01:00 +15°C° 0 mm 1 mps 762 mmHg 78%
    02:00 +14°C° 0 mm 1 mps 761 mmHg 79%
    03:00 +14°C° 0 mm 1 mps 761 mmHg 81%
    04:00 +14°C° 0 mm 1 mps 761 mmHg 82%
    05:00 +15°C° 0 mm 1 mps 761 mmHg 80%
    06:00 +16°C° 0 mm 1 mps 762 mmHg 77%
    07:00 +18°C° 0 mm 1 mps 762 mmHg 74%
    08:00 +18°C° 0 mm 2 mps 762 mmHg 69%
    09:00 +19°C° 0 mm 2 mps 762 mmHg 64%
    10:00 +21°C° 0 mm 2 mps 762 mmHg 59%
    11:00 +23°C° 0 mm 2 mps 762 mmHg 55%
    12:00 +24°C° 0 mm 2 mps 762 mmHg 51%
    13:00 +25°C° 0 mm 2 mps 761 mmHg 47%
    14:00 +25°C° 0 mm 2 mps 761 mmHg 47%
    15:00 +25°C° 0 mm 2 mps 761 mmHg 47%
    16:00 +25°C° 0 mm 2 mps 761 mmHg 47%
    17:00 +23°C° 0 mm 2 mps 761 mmHg 51%
    18:00 +21°C° 0 mm 2 mps 760 mmHg 55%
    19:00 +20°C° 0 mm 2 mps 760 mmHg 58%
    20:00 +19°C° 0 mm 2 mps 760 mmHg 61%
    21:00 +19°C° 0 mm 2 mps 761 mmHg 64%
    22:00 +18°C° 0 mm 2 mps 761 mmHg 67%
    23:00 +17°C° 0 mm 2 mps 761 mmHg 70%

    Day after tomorrow, 23 August, Friday

    Time Temperature Precipitation Wind Pressure Humidity
    00:00 +17°C° 0 mm 2 mps 761 mmHg 74%
    01:00 +16°C° 0 mm 2 mps 761 mmHg 77%
    02:00 +16°C° 0 mm 2 mps 761 mmHg 78%
    03:00 +15°C° 0 mm 2 mps 761 mmHg 79%
    04:00 +15°C° 0 mm 2 mps 761 mmHg 80%
    05:00 +16°C° 0 mm 2 mps 761 mmHg 76%
    06:00 +17°C° 0 mm 2 mps 761 mmHg 73%
    07:00 +18°C° 0 mm 2 mps 761 mmHg 70%
    08:00 +20°C° 0 mm 2 mps 761 mmHg 63%
    09:00 +21°C° 0 mm 2 mps 761 mmHg 57%
    10:00 +24°C° 0 mm 2 mps 761 mmHg 51%
    11:00 +25°C° 0 mm 3 mps 761 mmHg 48%
    12:00 +26°C° 0 mm 3 mps 761 mmHg 44%
    13:00 +26°C° 0 mm 3 mps 761 mmHg 41%
    14:00 +26°C° 0 mm 3 mps 760 mmHg 41%
    15:00 +26°C° 0 mm 3 mps 760 mmHg 41%
    16:00 +26°C° 0 mm 3 mps 760 mmHg 41%
    17:00 +25°C° 0 mm 3 mps 759 mmHg 45%
    18:00 +23°C° 0 mm 2 mps 759 mmHg 50%
    19:00 +20°C° 0 mm 2 mps 759 mmHg 55%
    20:00 +20°C° 0 mm 2 mps 759 mmHg 57%
    21:00 +19°C° 0 mm 2 mps 759 mmHg 59%
    22:00 +18°C° 0 mm 2 mps 759 mmHg 61%
    23:00 +18°C° 0 mm 3 mps 759 mmHg 64%

    24 August, Saturday

    Time Temperature Precipitation Wind Pressure Humidity
    00:00 +17°C° 0 mm 3 mps 759 mmHg 66%
    01:00 +17°C° 0 mm 3 mps 759 mmHg 68%
    02:00 +16°C° 0 mm 3 mps 759 mmHg 70%
    03:00 +16°C° 0 mm 3 mps 759 mmHg 72%
    04:00 +16°C° 0 mm 3 mps 759 mmHg 74%
    05:00 +17°C° 0 mm 3 mps 758 mmHg 72%
    06:00 +17°C° 0 mm 3 mps 758 mmHg 70%
    07:00 +18°C° 0 mm 3 mps 758 mmHg 68%
    08:00 +20°C° 0 mm 3 mps 758 mmHg 62%
    09:00 +22°C° 0 mm 4 mps 758 mmHg 56%
    10:00 +25°C° 0 mm 4 mps 759 mmHg 50%
    11:00 +26°C° 0 mm 4 mps 758 mmHg 48%
    12:00 +26°C° 0 mm 4 mps 758 mmHg 45%
    13:00 +27°C° 0 mm 4 mps 758 mmHg 42%
    14:00 +27°C° 0 mm 4 mps 757 mmHg 42%
    15:00 +27°C° 0 mm 4 mps 757 mmHg 42%
    16:00 +27°C° 0 mm 4 mps 757 mmHg 42%
    17:00 +26°C° 0 mm 3 mps 757 mmHg 47%
    18:00 +24°C° 0 mm 3 mps 757 mmHg 53%
    19:00 +21°C° 0 mm 2 mps 756 mmHg 58%
    20:00 +20°C° 0 mm 3 mps 757 mmHg 60%
    21:00 +20°C° 0 mm 3 mps 757 mmHg 63%
    22:00 +19°C° 0 mm 3 mps 757 mmHg 65%
    23:00 +18°C° 0 mm 3 mps 757 mmHg 66%

    25 August, Sunday

    Time Temperature Precipitation Wind Pressure Humidity
    00:00 +18°C° 0 mm 3 mps 757 mmHg 68%
    01:00 +17°C° 0 mm 3 mps 757 mmHg 69%
    02:00 +17°C° 0 mm 3 mps 757 mmHg 70%
    03:00 +16°C° 0 mm 3 mps 756 mmHg 72%
    04:00 +16°C° 0 mm 3 mps 756 mmHg 73%
    05:00 +17°C° 0 mm 4 mps 756 mmHg 70%
    06:00 +18°C° 0 mm 4 mps 757 mmHg 68%
    07:00 +19°C° 0 mm 4 mps 757 mmHg 66%
    08:00 +20°C° 0 mm 5 mps 757 mmHg 60%
    09:00 +22°C° 0 mm 5 mps 757 mmHg 55%
    10:00 +25°C° 0 mm 5 mps 757 mmHg 49%
    11:00 +26°C° 0 mm 5 mps 757 mmHg 47%
    12:00 +27°C° 0 mm 5 mps 756 mmHg 45%
    13:00 +28°C° 0 mm 5 mps 756 mmHg 43%
    14:00 +28°C° 0 mm 5 mps 756 mmHg 44%
    15:00 +28°C° 0 mm 5 mps 756 mmHg 46%
    16:00 +28°C° 0 mm 5 mps 755 mmHg 47%
    17:00 +26°C° 0 mm 4 mps 755 mmHg 52%
    18:00 +25°C° 0 mm 4 mps 755 mmHg 58%
    19:00 +22°C° 0 mm 4 mps 755 mmHg 63%
    20:00 +22°C° 0 mm 4 mps 755 mmHg 64%
    21:00 +21°C° 0 mm 4 mps 755 mmHg 66%
    22:00 +21°C° 0 mm 5 mps 755 mmHg 67%
    23:00 +20°C° 0 mm 5 mps 755 mmHg 68%

    26 August, Monday

    Time Temperature Precipitation Wind Pressure Humidity
    00:00 +20°C° 0 mm 4 mps 755 mmHg 69%
    01:00 +20°C° 0 mm 4 mps 755 mmHg 70%
    02:00 +19°C° 0 mm 4 mps 755 mmHg 72%
    03:00 +19°C° 0 mm 4 mps 754 mmHg 75%
    04:00 +19°C° 0 mm 4 mps 754 mmHg 78%
    05:00 +19°C° 0 mm 4 mps 754 mmHg 77%
    06:00 +20°C° 0 mm 4 mps 754 mmHg 77%
    07:00 +20°C° 0 mm 5 mps 754 mmHg 76%
    08:00 +22°C° 0 mm 5 mps 754 mmHg 71%
    09:00 +25°C° 0 mm 5 mps 753 mmHg 66%
    10:00 +27°C° 0 mm 5 mps 753 mmHg 62%
    11:00 +28°C° 0 mm 5 mps 753 mmHg 58%
    12:00 +29°C° 0 mm 5 mps 753 mmHg 55%
    13:00 +30°C° 0 mm 5 mps 752 mmHg 52%
    14:00 +30°C° 0 mm 5 mps 752 mmHg 51%
    15:00 +30°C° 0 mm 4 mps 751 mmHg 50%
    16:00 +32°C° 0 mm 4 mps 751 mmHg 49%
    17:00 +29°C° 0.4 mm 3 mps 751 mmHg 55%
    18:00 +28°C° 0.4 mm 3 mps 751 mmHg 60%
    19:00 +26°C° 0.4 mm 2 mps 751 mmHg 66%
    20:00 +25°C° 2.9 mm 2 mps 751 mmHg 72%
    21:00 +24°C° 2.9 mm 2 mps 751 mmHg 78%
    22:00 +23°C° 2.9 mm 1 mps 751 mmHg 83%
    23:00 +23°C° 0.1 mm 1 mps 751 mmHg 84%
    Show more